DW8507 Weather Reports


time (UTC)temp
C
wind
direction
speed
KPH
gust
KPH
rain 1hr
cm
rain 24hr
cm
rain mn
cm
humidity
%
barometer
mb
20260507114058 17 0 0.0 0.0 0.00 0.00 0.00 47 1010.3
20260507113157 17 0 0.0 0.0 0.00 0.00 0.00 44 1010.5
20260507112257 17 0 0.0 0.0 0.00 0.00 0.00 47 1010.5
20260507111611 17 0 0.0 0.0 0.00 0.00 0.00 42 1010.6
20260507110457 17 0 0.0 0.0 0.00 0.00 0.00 48 1010.7
20260507105557 17 0 0.0 0.0 0.00 0.00 0.00 50 1010.6
20260507104657 17 0 0.0 0.0 0.00 0.00 0.00 54 1010.7
20260507104010 16 0 0.0 0.0 0.00 0.00 0.00 56 1010.9
20260507102857 16 0 0.0 0.0 0.00 0.00 0.00 55 1010.8
20260507101958 16 0 0.0 0.0 0.00 0.00 0.00 55 1010.7
20260507101307 16 0 0.0 0.0 0.00 0.00 0.00 56 1011.1
20260507100157 16 0 0.0 0.0 0.00 0.00 0.00 61 1011.2
20260507095258 15 0 0.0 0.0 0.00 0.00 0.00 62 1011.2
20260507094357 15 0 0.0 0.0 0.00 0.00 0.00 65 1011.1
20260507093457 15 0 0.0 0.0 0.00 0.00 0.00 72 1011.3
20260507092557 14 0 0.0 0.0 0.00 0.00 0.00 74 1011.1
20260507091657 13 0 0.0 0.0 0.00 0.00 0.00 79 1011.2
20260507090757 13 0 0.0 0.0 0.00 0.00 0.00 82 1011.5
20260507085857 12 0 0.0 0.0 0.00 0.00 0.00 88 1011.3
20260507084957 11 0 0.0 0.0 0.00 0.00 0.00 92 1011.5
20260507084057 11 0 0.0 0.0 0.00 0.00 0.00 94 1011.3
20260507083408 10 0 0.0 0.0 0.00 0.00 0.00 94 1011.6
20260507082257 9 0 0.0 0.0 0.00 0.00 0.00 94 1011.5
20260507081357 9 0 0.0 0.0 0.00 0.00 0.00 94 1011.5
20260507080710 9 0 0.0 0.0 0.00 0.00 0.00 94 1011.5
20260507075812 8 0 0.0 0.0 0.00 0.00 0.00 95 1011.6
20260507074657 8 0 0.0 0.0 0.00 0.00 0.00 94 1011.5
20260507073758 8 0 0.0 0.0 0.00 0.00 0.00 94 1011.7
20260507072857 7 0 0.0 0.0 0.00 0.00 0.00 94 1011.5
20260507071959 7 0 0.0 0.0 0.00 0.00 0.00 93 1011.4
20260507071058 7 0 0.0 0.0 0.00 0.00 0.00 100 1011.4
20260507070202 7 0 0.0 0.0 0.00 0.00 0.00 97 1011.4
20260507065257 7 0 0.0 0.0 0.00 0.00 0.00 97 1011.4
20260507064358 6 0 0.0 0.0 0.00 0.00 0.00 97 1011.4
20260507063509 6 0 0.0 0.0 0.00 0.00 0.00 97 1011.5
20260507062557 6 0 0.0 0.0 0.00 0.00 0.00 96 1011.2
20260507061658 6 0 0.0 0.0 0.00 0.00 0.00 96 1011.3
20260507060757 6 0 0.0 0.0 0.00 0.00 0.00 96 1011.4
20260507055857 6 0 0.0 0.0 0.00 0.00 0.00 96 1011.4
20260507054958 6 0 0.0 0.0 0.00 0.00 0.00 96 1011.2
20260507054057 6 0 0.0 0.0 0.00 0.00 0.00 95 1011.1
20260507053410 6 0 0.0 0.0 0.00 0.00 0.00 95 1011.2
20260507052257 6 0 0.0 0.0 0.00 0.00 0.00 95 1011.1
20260507051357 6 0 0.0 0.0 0.00 0.00 0.00 95 1011.0
20260507050457 6 0 0.0 0.0 0.00 0.00 0.00 95 1011.2
20260507045557 6 0 0.0 0.0 0.00 0.00 0.00 95 1011.0
20260507044657 6 0 0.0 0.0 0.00 0.00 0.00 95 1010.8
20260507044009 6 0 0.0 0.0 0.00 0.00 0.00 94 1010.8
20260507042857 6 0 0.0 0.0 0.00 0.00 0.00 94 1010.7
20260507042208 6 0 0.0 0.0 0.00 0.00 0.00 94 1010.8
20260507041057 6 0 0.0 0.0 0.00 0.00 0.00 94 1010.8
20260507040157 6 0 0.0 0.0 0.00 0.00 0.00 93 1011.0
20260507035511 6 0 0.0 0.0 0.00 0.00 0.00 93 1010.6
20260507034357 5 0 0.0 0.0 0.00 0.00 0.00 93 1010.7
20260507033457 5 0 0.0 0.0 0.00 0.00 0.00 92 1010.6
20260507032557 5 0 0.0 0.0 0.00 0.00 0.00 92 1010.8
20260507031658 5 0 0.0 0.0 0.00 0.00 0.00 92 1010.6
20260507031007 5 0 0.0 0.0 0.00 0.00 0.00 91 1010.6
20260507030110 5 0 0.0 0.0 0.00 0.00 0.00 91 1010.7
20260507024957 4 0 0.0 0.0 0.00 0.00 0.00 90 1010.8
20260507024057 4 0 0.0 0.0 0.00 0.00 0.00 90 1010.7
20260507023407 4 0 0.0 0.0 0.00 0.00 0.00 89 1010.7
20260507022257 4 0 0.0 0.0 0.00 0.00 0.00 89 1010.5
20260507021357 4 0 0.0 0.0 0.00 0.00 0.00 88 1010.8
20260507020457 4 0 0.0 0.0 0.00 0.00 0.00 88 1010.7
20260507015557 4 0 0.0 0.0 0.00 0.00 0.00 89 1010.6
20260507014657 5 0 0.0 0.0 0.00 0.00 0.00 89 1010.6
20260507013757 5 0 0.0 0.0 0.00 0.00 0.00 89 1010.3
20260507012857 5 0 0.0 0.0 0.00 0.00 0.00 89 1010.4
20260507011957 5 0 0.0 0.0 0.00 0.00 0.00 89 1010.3
20260507011308 5 0 0.0 0.0 0.00 0.00 0.00 89 1010.3
20260507010157 5 0 0.0 0.0 0.00 0.00 0.00 89 1010.3
20260507005507 5 0 0.0 0.0 0.00 0.00 0.00 89 1010.5
20260507004358 5 0 0.0 0.0 0.00 0.00 0.00 88 1010.6
20260507003457 6 0 0.0 0.0 0.00 0.00 0.00 88 1010.5
20260507002557 6 0 0.0 0.0 0.00 0.00 0.00 89 1010.6
20260507001907 6 0 0.0 0.0 0.00 0.00 0.00 88 1010.5
20260507000758 6 0 0.0 0.0 0.00 0.00 0.00 88 1010.8
20260506235857 6 0 0.0 0.0 0.00 0.00 0.00 88 1010.6
20260506234957 6 0 0.0 0.0 0.00 0.00 0.00 87 1010.4
20260506234057 6 0 0.0 0.0 0.00 0.00 0.00 87 1010.3
20260506233409 6 0 0.0 0.0 0.00 0.00 0.00 86 1010.5
20260506232257 7 0 0.0 0.0 0.00 0.00 0.00 86 1010.4
20260506231357 7 0 0.0 0.0 0.00 0.00 0.00 86 1010.4
20260506230711 7 0 0.0 0.0 0.00 0.00 0.00 81 1010.2
20260506225557 7 0 0.0 0.0 0.00 0.00 0.00 81 1010.2
20260506224657 7 0 0.0 0.0 0.00 0.00 0.00 81 1010.4
20260506223758 7 0 0.0 0.0 0.00 0.00 0.00 81 1010.1
20260506222857 7 0 0.0 0.0 0.00 0.00 0.00 80 1010.1
20260506221957 7 0 0.0 0.0 0.00 0.00 0.00 80 1010.1
20260506221057 8 0 0.0 0.0 0.00 0.00 0.00 79 1010.0
20260506220157 8 0 0.0 0.0 0.00 0.00 0.00 79 1010.1
20260506215258 8 0 0.0 0.0 0.00 0.00 0.00 78 1009.7
20260506214358 8 0 0.0 0.0 0.00 0.00 0.00 76 1009.8
20260506213457 8 0 0.0 0.0 0.00 0.00 0.00 75 1010.1
20260506212557 8 0 0.0 0.0 0.00 0.00 0.00 74 1009.7
20260506211657 9 0 0.0 0.0 0.00 0.00 0.00 74 1009.9
20260506210757 9 0 0.0 0.0 0.00 0.00 0.00 73 1009.8
20260506210109 9 0 0.0 0.0 0.00 0.00 0.00 73 1009.5
20260506204957 10 0 0.0 0.0 0.00 0.00 0.00 72 1009.6
20260506204057 10 0 0.0 0.0 0.00 0.00 0.00 72 1009.6
20260506203410 10 0 0.0 0.0 0.00 0.00 0.00 71 1009.5
20260506202508 10 0 0.0 0.0 0.00 0.00 0.00 71 1009.6
20260506201357 10 0 0.0 0.0 0.00 0.00 0.00 70 1009.4
20260506200707 11 0 0.0 0.0 0.00 0.00 0.00 70 1009.5
20260506195557 11 0 0.0 0.0 0.00 0.00 0.00 68 1009.4
20260506194657 11 0 0.0 0.0 0.00 0.00 0.00 66 1009.1
20260506193757 11 0 0.0 0.0 0.00 0.00 0.00 65 1009.1
20260506192857 11 0 0.0 0.0 0.00 0.00 0.00 65 1008.8
20260506191957 11 0 0.0 0.0 0.00 0.00 0.00 65 1009.0
20260506191057 11 0 0.0 0.0 0.00 0.00 0.00 65 1008.8
20260506190409 11 0 0.0 0.0 0.00 0.00 0.00 65 1008.7
20260506185257 12 0 0.0 0.0 0.00 0.00 0.00 65 1008.6
20260506184357 12 0 0.0 0.0 0.00 0.00 0.00 64 1008.5
20260506183457 12 0 0.0 0.0 0.00 0.00 0.00 64 1008.5
20260506182557 12 0 0.0 0.0 0.00 0.00 0.00 63 1008.4
20260506181657 12 0 0.0 0.0 0.00 0.00 0.00 63 1008.5
20260506180758 12 0 0.0 0.0 0.00 0.00 0.00 60 1008.4
20260506175857 12 0 0.0 0.0 0.00 0.00 0.00 59 1008.3
20260506174957 12 0 0.0 0.0 0.00 0.00 0.00 57 1008.2
20260506174057 12 0 0.0 0.0 0.00 0.00 0.00 56 1007.8
20260506173157 13 0 0.0 0.0 0.00 0.00 0.00 55 1007.9
20260506172257 13 0 0.0 0.0 0.00 0.00 0.00 55 1008.1
20260506171358 13 0 0.0 0.0 0.00 0.00 0.00 55 1008.0
20260506170458 13 0 0.0 0.0 0.00 0.00 0.00 55 1007.9
20260506165558 13 0 0.0 0.0 0.00 0.00 0.00 54 1007.9
20260506164909 13 0 0.0 0.0 0.00 0.00 0.00 53 1007.9
20260506163758 13 0 0.0 0.0 0.00 0.00 0.00 56 1007.7
20260506163109 12 0 0.0 0.0 0.00 0.00 0.00 55 1008.0
20260506161958 12 0 0.0 0.0 0.00 0.00 0.00 54 1007.9
20260506161057 13 0 0.0 1.6 0.00 0.00 0.00 54 1007.8
20260506160157 13 0 0.0 0.0 0.00 0.00 0.00 54 1007.8
20260506155257 13 0 0.0 0.0 0.00 0.00 0.00 54 1007.9
20260506154358 13 0 0.0 0.0 0.00 0.00 0.00 53 1008.1
20260506153457 13 0 0.0 0.0 0.00 0.00 0.00 55 1007.7
20260506152557 13 0 0.0 0.0 0.00 0.00 0.00 53 1007.8
20260506151657 14 0 0.0 0.0 0.00 0.00 0.00 53 1007.8
20260506150757 14 0 0.0 0.0 0.00 0.00 0.00 53 1008.0
20260506150107 13 0 0.0 0.0 0.00 0.00 0.00 53 1008.0
20260506144957 13 0 0.0 0.0 0.00 0.00 0.00 55 1008.2
20260506144057 14 0 0.0 0.0 0.00 0.00 0.00 54 1008.0
20260506143157 14 0 0.0 0.0 0.00 0.00 0.00 54 1008.2
20260506142258 14 0 0.0 0.0 0.00 0.00 0.00 52 1008.2
20260506141357 15 0 0.0 0.0 0.00 0.00 0.00 51 1008.0
20260506140457 15 0 0.0 0.0 0.00 0.00 0.00 51 1008.0
20260506135557 15 0 0.0 0.0 0.00 0.00 0.00 51 1007.8
20260506134657 15 0 0.0 0.0 0.00 0.00 0.00 50 1008.0
20260506133757 15 0 0.0 0.0 0.00 0.00 0.00 51 1007.8
20260506132857 14 0 0.0 0.0 0.00 0.00 0.00 51 1007.9
20260506131957 14 0 0.0 0.0 0.00 0.00 0.00 52 1008.3
20260506131057 14 0 0.0 0.0 0.00 0.00 0.00 52 1008.0
20260506130157 14 0 0.0 0.0 0.00 0.00 0.00 52 1008.1
20260506125257 13 0 0.0 0.0 0.00 0.00 0.00 52 1008.3
20260506124357 14 0 0.0 0.0 0.00 0.00 0.00 50 1008.3
20260506123457 14 0 0.0 0.0 0.00 0.00 0.00 48 1008.3
20260506122557 14 0 0.0 0.0 0.00 0.00 0.00 51 1008.2
20260506121657 13 0 0.0 0.0 0.00 0.00 0.00 51 1008.1
20260506120757 13 0 0.0 0.0 0.00 0.00 0.00 51 1008.3
20260506115857 13 0 0.0 0.0 0.00 0.00 0.00 52 1008.2
20260506114957 13 0 0.0 0.0 0.00 0.00 0.00 54 1008.2